Location: Buckland
(65.9785°N, 161.1281°W)
Time: 21:28:42
(UTC+00:00)

Transit 2A - Visible Passes

Search period start: 05 December 2020 00:00
Search period end: 15 December 2020 00:00
Orbit: 595 x 963 km, 66.7° (Epoch: 04 December)

Date Brightness Start Highest point End Pass type
(mag) Time Alt. Az. Time Alt. Az. Time Alt. Az.
05 Dec 7.9 02:09:02 10° SSE 02:13:05 19° ESE 02:16:57 10° ENE visible
05 Dec 6.7 03:49:31 10° SSW 03:55:17 45° SE 03:58:01 27° E visible
05 Dec 6.0 05:32:14 10° WSW 05:38:17 83° SSE 05:38:29 81° ESE visible
05 Dec 7.7 07:15:48 10° W 07:18:59 33° W 07:18:59 33° W visible
05 Dec 9.0 08:59:20 10° WNW 08:59:27 11° WNW 08:59:27 11° WNW visible
06 Dec 7.0 03:15:39 10° SSW 03:21:15 39° SE 03:24:46 19° ENE visible
06 Dec 6.1 04:58:05 10° WSW 05:04:06 76° SSE 05:05:15 57° E visible
06 Dec 7.0 06:41:34 10° W 06:45:44 47° W 06:45:44 47° W visible
06 Dec 8.7 08:25:07 10° WNW 08:26:13 16° WNW 08:26:13 16° WNW visible
07 Dec 7.3 02:41:53 10° S 02:47:14 33° SE 02:51:31 13° ENE visible
07 Dec 6.2 04:23:57 10° SW 04:29:57 69° SSE 04:31:59 40° E visible
07 Dec 6.4 06:07:18 10° W 06:12:28 67° W 06:12:28 67° W visible
07 Dec 8.2 07:50:54 10° WNW 07:52:57 22° WNW 07:52:57 22° WNW visible
08 Dec 7.5 02:08:12 10° S 02:13:14 28° ESE 02:17:58 10° ENE visible
08 Dec 6.4 03:49:52 10° SW 03:55:49 61° SE 03:58:43 28° ENE visible
08 Dec 6.0 05:33:05 10° WSW 05:39:02 87° N 05:39:12 84° NE visible
08 Dec 7.7 07:16:40 10° WNW 07:19:41 31° WNW 07:19:41 31° WNW visible
08 Dec 9.0 09:00:08 10° WNW 09:00:10 10° WNW 09:00:10 10° WNW visible
09 Dec 6.6 03:15:50 10° SW 03:21:43 54° SE 03:25:27 20° ENE visible
09 Dec 6.1 04:58:51 10° WSW 05:04:49 89° SSE 05:05:55 60° ENE visible
09 Dec 7.1 06:42:27 10° W 06:46:24 44° WNW 06:46:24 44° WNW visible
09 Dec 8.7 08:25:55 10° WNW 08:26:53 15° WNW 08:26:53 15° WNW visible
10 Dec 6.8 02:41:53 10° SSW 02:47:37 46° SE 02:52:10 14° ENE visible
10 Dec 6.1 04:24:39 10° WSW 04:30:38 84° SSE 04:32:38 41° ENE visible
10 Dec 6.4 06:08:12 10° W 06:13:07 63° WNW 06:13:07 63° WNW visible
10 Dec 8.3 07:51:43 10° WNW 07:53:36 21° WNW 07:53:36 21° WNW visible
11 Dec 7.1 02:07:59 10° SSW 02:13:34 40° SE 02:18:43 10° ENE visible
11 Dec 6.2 03:50:28 10° WSW 03:56:27 77° SSE 03:59:21 29° ENE visible
11 Dec 6.0 05:33:58 10° W 05:39:48 83° N 05:39:50 83° N visible
11 Dec 7.8 07:17:31 10° WNW 07:20:18 29° WNW 07:20:18 29° WNW visible
12 Dec 6.3 03:16:19 10° SW 03:22:18 70° SSE 03:26:04 21° ENE visible
12 Dec 6.0 04:59:43 10° W 05:05:35 84° N 05:06:33 62° ENE visible
12 Dec 7.2 06:43:18 10° WNW 06:47:01 41° WNW 06:47:01 41° WNW visible
12 Dec 8.8 08:26:43 10° WNW 08:27:30 14° WNW 08:27:30 14° WNW visible
13 Dec 6.5 02:42:14 10° SW 02:48:09 62° SE 02:52:47 14° ENE visible
13 Dec 6.1 04:25:29 10° W 04:31:22 86° N 04:33:16 43° ENE visible
13 Dec 6.5 06:09:05 10° WNW 06:13:44 60° WNW 06:13:44 60° WNW visible
13 Dec 8.4 07:52:31 10° WNW 07:54:13 20° WNW 07:54:13 20° WNW visible
14 Dec 6.7 02:08:12 10° SW 02:14:02 55° SE 02:19:21 10° ENE visible
14 Dec 6.1 03:51:15 10° WSW 03:57:10 90° NNE 03:59:58 30° ENE visible
14 Dec 6.0 05:34:51 10° W 05:40:27 84° NNW 05:40:27 84° NNW visible
14 Dec 7.9 07:18:19 10° WNW 07:20:56 27° WNW 07:20:56 27° WNW visible
